GW4729 Weather Reports


time (UTC)temp
F
wind
direction
speed
knots
gust
knots
rain 1hr
in
rain 24hr
in
rain mn
in
humidity
%
barometer
mb
20260509201907 70 155 0.0 1.7 0.00 0.00 0.00 57 1009.9
20260509201402 70 144 0.0 1.7 0.00 0.00 0.00 56 1009.7
20260509200859 70 65 0.0 0.0 0.00 0.00 0.00 54 1009.7
20260509200354 71 66 0.0 0.0 0.00 0.00 0.00 57 1009.6
20260509195851 70 66 0.0 0.0 0.00 0.00 0.00 55 1009.8
20260509195351 70 108 0.0 3.5 0.00 0.00 0.00 54 1010.1
20260509194850 71 251 0.0 0.0 0.00 0.00 0.00 54 1010.1
20260509194347 71 213 0.0 0.9 0.00 0.00 0.00 49 1010.1
20260509193843 71 153 0.0 1.7 0.00 0.00 0.00 51 1010.1
20260509193343 71 153 0.0 0.0 0.00 0.00 0.00 55 1010.0
20260509192840 71 164 3.5 3.5 0.00 0.00 0.00 50 1010.0
20260509192336 71 231 0.9 2.6 0.00 0.00 0.00 47 1010.0
20260509191831 72 169 0.9 2.6 0.00 0.00 0.00 49 1010.2
20260509191327 73 171 1.7 2.6 0.00 0.00 0.00 45 1010.2
20260509190823 73 246 0.9 1.7 0.00 0.00 0.00 45 1010.1
20260509190321 74 185 1.7 2.6 0.00 0.00 0.00 48 1010.3
20260509185818 72 176 1.7 2.6 0.00 0.00 0.00 52 1010.2
20260509185314 71 179 0.0 5.2 0.00 0.00 0.00 54 1010.0
20260509184812 73 194 1.7 2.6 0.00 0.00 0.00 48 1010.5
20260509184309 74 149 3.5 3.5 0.00 0.00 0.00 48 1010.7
20260509183805 72 217 0.0 1.7 0.00 0.00 0.00 51 1010.7
20260509183301 72 167 0.9 2.6 0.00 0.00 0.00 52 1010.8
20260509182756 73 196 1.7 3.5 0.00 0.00 0.00 50 1010.9
20260509182254 73 114 0.0 1.7 0.00 0.00 0.00 51 1010.8
20260509181751 72 139 0.0 0.9 0.00 0.00 0.00 54 1010.8
20260509181249 71 192 0.0 0.9 0.00 0.00 0.00 58 1010.8
20260509180746 72 180 0.9 3.5 0.00 0.00 0.00 54 1011.1
20260509180242 72 305 0.9 1.7 0.00 0.00 0.00 52 1011.3
20260509175738 70 340 0.0 1.7 0.00 0.00 0.00 59 1011.3
20260509175235 70 286 0.0 2.6 0.00 0.00 0.00 62 1011.3
20260509174731 69 110 0.0 0.9 0.00 0.00 0.00 57 1011.7
20260509174226 69 113 0.9 2.6 0.00 0.00 0.00 57 1011.5
20260509173722 69 47 0.9 1.7 0.00 0.00 0.00 56 1011.8
20260509173218 68 319 0.0 1.7 0.00 0.00 0.00 64 1011.8
20260509172714 68 353 0.0 1.7 0.00 0.00 0.00 61 1011.7
20260509172211 68 347 0.9 1.7 0.00 0.00 0.00 58 1012.0
20260509171707 67 279 0.0 0.9 0.00 0.00 0.00 61 1012.2
20260509171203 67 343 0.0 0.0 0.00 0.00 0.00 60 1012.2
20260509170700 65 344 0.0 0.0 0.00 0.00 0.00 62 1012.4
20260509170156 65 283 0.9 0.9 0.00 0.00 0.00 61 1012.5
20260509165654 65 318 0.9 1.7 0.00 0.00 0.00 62 1012.4
20260509165150 65 53 0.9 0.9 0.00 0.00 0.00 63 1012.5
20260509164646 65 354 0.0 1.7 0.00 0.00 0.00 61 1012.5
20260509164142 66 249 0.0 1.7 0.00 0.00 0.00 63 1012.3
20260509163640 66 133 0.0 1.7 0.00 0.00 0.00 64 1012.3
20260509163135 67 94 0.0 1.7 0.00 0.00 0.00 57 1012.3
20260509162633 67 165 0.0 1.7 0.00 0.00 0.00 60 1012.3
20260509162128 67 51 1.7 2.6 0.00 0.00 0.00 56 1012.1
20260509161625 67 313 0.0 1.7 0.00 0.00 0.00 57 1011.9
20260509161120 68 299 2.6 3.5 0.00 0.00 0.00 58 1011.9
20260509160616 68 333 0.9 1.7 0.00 0.00 0.00 60 1012.1
20260509160111 67 66 0.9 5.2 0.00 0.00 0.00 58 1012.1
20260509155608 67 300 2.6 2.6 0.00 0.00 0.00 54 1012.2
20260509155104 67 275 1.7 2.6 0.00 0.00 0.00 56 1012.3
20260509154600 65 320 1.7 3.5 0.00 0.00 0.00 61 1012.0
20260509154058 67 325 2.6 3.5 0.00 0.00 0.00 58 1012.2
20260509153555 66 356 0.9 1.7 0.00 0.00 0.00 63 1012.3
20260509153052 65 307 1.7 2.6 0.00 0.00 0.00 62 1012.4
20260509152547 65 322 0.9 2.6 0.00 0.00 0.00 61 1012.3
20260509152045 67 309 0.9 2.6 0.00 0.00 0.00 60 1012.6
20260509151541 66 334 0.0 0.9 0.00 0.00 0.00 60 1012.4
20260509151039 67 334 1.7 2.6 0.00 0.00 0.00 58 1012.6
20260509150536 69 59 0.0 0.9 0.00 0.00 0.00 55 1012.5
20260509150035 67 340 0.9 1.7 0.00 0.00 0.00 56 1012.4
20260509145530 67 347 0.0 1.7 0.00 0.00 0.00 59 1012.5
20260509145025 66 318 0.9 0.9 0.00 0.00 0.00 62 1012.6
20260509144522 66 274 0.0 1.7 0.00 0.00 0.00 64 1012.7
20260509144019 66 36 0.9 2.6 0.00 0.00 0.00 63 1012.6
20260509143516 64 53 0.9 1.7 0.00 0.00 0.00 60 1012.9
20260509143014 63 341 0.9 1.7 0.00 0.00 0.00 62 1012.7
20260509142509 62 324 0.9 1.7 0.00 0.00 0.00 64 1012.9
20260509142005 61 343 0.0 0.0 0.00 0.00 0.00 65 1012.9
20260509141502 60 305 0.0 0.0 0.00 0.00 0.00 66 1013.0
20260509140959 60 303 0.0 0.9 0.00 0.00 0.00 66 1012.9
20260509140455 61 210 0.0 1.7 0.00 0.00 0.00 63 1013.2
20260509135953 62 204 0.0 0.0 0.00 0.00 0.00 64 1013.0
20260509135450 61 319 0.0 0.0 0.00 0.00 0.00 65 1012.8
20260509134947 60 319 0.0 0.0 0.00 0.00 0.00 63 1012.6
20260509134445 60 282 0.0 0.0 0.00 0.00 0.00 65 1012.8
20260509133942 60 287 0.0 0.0 0.00 0.00 0.00 67 1012.2
20260509133439 60 288 0.0 0.0 0.00 0.00 0.00 68 1012.2
20260509132937 60 280 0.0 0.0 0.00 0.00 0.00 65 1012.2
20260509132435 61 279 0.0 0.0 0.00 0.00 0.00 67 1012.5
20260509131932 61 279 0.0 0.0 0.00 0.00 0.00 63 1012.6
20260509131429 61 279 0.0 0.0 0.00 0.00 0.00 67 1012.4
20260509130925 60 280 0.9 0.9 0.00 0.00 0.00 66 1012.6
20260509130420 59 284 0.0 0.0 0.00 0.00 0.00 67 1012.3
20260509125918 59 284 0.0 0.0 0.00 0.00 0.00 66 1012.5
20260509125415 60 284 0.9 1.7 0.00 0.00 0.00 65 1012.5
20260509124910 60 283 0.0 0.9 0.00 0.00 0.00 68 1012.5
20260509124408 60 283 0.0 0.0 0.00 0.00 0.00 67 1012.5
20260509123905 60 283 0.0 0.0 0.00 0.00 0.00 71 1012.5
20260509123402 59 283 0.0 0.0 0.00 0.00 0.00 68 1012.4
20260509122858 59 283 0.0 0.0 0.00 0.00 0.00 69 1012.6
20260509122355 59 283 0.0 0.0 0.00 0.00 0.00 69 1012.7
20260509121852 58 283 0.0 0.0 0.00 0.00 0.00 66 1012.5
20260509121349 58 283 0.0 0.0 0.00 0.00 0.00 73 1012.7
20260509120847 58 283 0.0 0.0 0.00 0.00 0.00 69 1012.8
20260509120344 58 283 0.0 0.0 0.00 0.00 0.00 72 1012.8
20260509115842 58 283 0.0 0.0 0.00 0.00 0.00 69 1012.7
20260509115339 58 283 0.0 0.0 0.00 0.00 0.00 66 1012.7
20260509114837 58 283 0.0 0.0 0.00 0.00 0.00 67 1012.7
20260509114336 58 283 0.0 0.0 0.00 0.00 0.00 67 1012.7
20260509113835 58 283 0.0 0.0 0.00 0.00 0.00 67 1012.7
20260509113331 57 283 0.0 0.0 0.00 0.00 0.00 67 1012.8
20260509112828 57 283 0.0 0.0 0.00 0.00 0.00 69 1012.5
20260509112325 57 283 0.0 0.0 0.00 0.00 0.00 67 1012.5
20260509111822 57 283 0.0 0.0 0.00 0.00 0.00 65 1012.4
20260509111319 57 283 0.0 0.0 0.00 0.00 0.00 64 1012.3
20260509110817 57 283 0.0 0.0 0.00 0.00 0.00 61 1012.4
20260509110313 57 283 0.0 0.0 0.00 0.00 0.00 62 1012.2
20260509105811 57 283 0.0 0.0 0.00 0.00 0.00 62 1012.3
20260509105309 56 283 0.0 0.0 0.00 0.00 0.00 63 1012.3
20260509104805 57 283 0.0 0.0 0.00 0.00 0.00 63 1012.3
20260509104302 57 283 0.0 0.0 0.00 0.00 0.00 60 1012.1
20260509103800 57 282 0.0 0.0 0.00 0.00 0.00 59 1012.0
20260509103257 58 282 0.0 0.0 0.00 0.00 0.00 60 1012.0
20260509102755 58 282 0.0 0.0 0.00 0.00 0.00 56 1011.9
20260509102252 58 282 0.9 1.7 0.00 0.00 0.00 54 1011.7
20260509101748 59 279 0.0 0.0 0.00 0.00 0.00 57 1011.7
20260509101244 59 279 0.9 1.7 0.00 0.00 0.00 53 1011.7
20260509100742 60 269 1.7 2.6 0.00 0.00 0.00 51 1011.9
20260509100240 59 256 0.9 2.6 0.00 0.00 0.00 55 1011.7
20260509095736 58 206 0.9 1.7 0.00 0.00 0.00 56 1011.6
20260509095233 58 126 0.0 0.0 0.00 0.00 0.00 60 1011.7
20260509094730 58 126 0.0 0.0 0.00 0.00 0.00 60 1011.7
20260509094227 57 126 0.0 0.0 0.00 0.00 0.00 59 1011.6
20260509093725 58 126 0.0 0.0 0.00 0.00 0.00 59 1011.6
20260509093222 58 126 0.0 0.9 0.00 0.00 0.00 58 1011.6
20260509092720 58 126 0.0 0.9 0.00 0.00 0.00 59 1011.6
20260509092218 58 126 0.0 0.0 0.00 0.00 0.00 61 1011.7
20260509091716 57 126 0.9 1.7 0.00 0.00 0.00 58 1011.6
20260509091211 56 105 0.0 0.0 0.00 0.00 0.00 64 1011.8
20260509090710 55 70 0.0 0.0 0.00 0.00 0.00 67 1011.9
20260509090206 54 70 0.0 0.0 0.00 0.00 0.00 68 1011.6
20260509085704 54 70 0.0 0.0 0.00 0.00 0.00 75 1011.8
20260509085200 53 29 0.0 0.0 0.00 0.00 0.00 75 1011.6
20260509084657 54 29 0.0 0.0 0.00 0.00 0.00 78 1011.7
20260509084154 54 29 0.0 0.0 0.00 0.00 0.00 76 1011.7
20260509083652 55 29 0.0 0.0 0.00 0.00 0.00 74 1011.8
20260509083148 55 29 0.0 0.0 0.00 0.00 0.00 69 1011.9
20260509082645 55 29 0.0 0.0 0.00 0.00 0.00 68 1011.9
20260509082142 55 29 0.0 0.0 0.00 0.00 0.00 68 1011.9
20260509081639 55 29 0.0 0.0 0.00 0.00 0.00 67 1012.0
20260509081136 55 29 0.0 0.0 0.00 0.00 0.00 68 1012.0
20260509080634 54 29 0.0 0.0 0.00 0.00 0.00 75 1012.0
20260509080132 54 29 0.0 0.0 0.00 0.00 0.00 69 1012.1
20260509075630 53 29 0.0 0.0 0.00 0.00 0.00 72 1012.1
20260509075128 53 29 0.0 0.0 0.00 0.00 0.00 75 1012.1
20260509074624 53 29 0.0 0.0 0.00 0.00 0.00 74 1012.0
20260509074120 54 29 0.0 0.0 0.00 0.00 0.00 75 1012.1
20260509073618 54 29 0.0 0.0 0.00 0.00 0.00 77 1012.0
20260509073114 54 29 0.0 0.0 0.00 0.00 0.00 74 1012.3
20260509072611 54 29 0.0 0.0 0.00 0.00 0.00 74 1012.0
20260509072107 54 29 0.0 0.0 0.00 0.00 0.00 73 1012.2
20260509071604 54 29 0.0 0.0 0.00 0.00 0.00 73 1012.1
20260509071101 55 29 0.0 0.0 0.00 0.00 0.00 67 1012.1
20260509070559 55 29 0.0 0.0 0.00 0.00 0.00 68 1012.2
20260509070054 55 29 0.0 0.0 0.00 0.00 0.00 64 1012.2
20260509065550 55 29 0.0 0.0 0.00 0.00 0.00 65 1012.4
20260509065046 54 29 0.0 0.0 0.00 0.00 0.00 67 1012.3
20260509064544 54 29 0.0 0.0 0.00 0.00 0.00 68 1012.4
20260509064042 54 29 0.0 0.0 0.00 0.00 0.00 69 1012.3
20260509063537 54 29 0.0 0.0 0.00 0.00 0.00 69 1012.3
20260509063035 54 29 0.0 0.0 0.00 0.00 0.00 69 1012.6
20260509062532 53 29 0.0 0.0 0.00 0.00 0.00 73 1012.5
20260509062030 53 29 0.0 0.0 0.00 0.00 0.00 71 1012.5
20260509061526 53 29 0.0 0.0 0.00 0.00 0.00 75 1012.5
20260509061024 52 29 0.0 0.0 0.00 0.00 0.00 76 1012.5
20260509060521 52 29 0.0 0.0 0.00 0.00 0.00 73 1012.6
20260509060017 52 29 0.0 0.0 0.00 0.00 0.00 74 1012.5
20260509055512 52 29 0.0 0.0 0.00 0.00 0.00 76 1012.6
20260509055009 52 29 0.0 0.0 0.00 0.00 0.00 72 1012.7
20260509054505 52 29 0.0 0.0 0.00 0.00 0.00 74 1012.7
20260509054003 50 29 0.0 0.0 0.00 0.00 0.00 77 1012.6
20260509053501 49 29 0.0 0.0 0.00 0.00 0.00 79 1012.8
20260509052958 50 29 0.0 0.0 0.00 0.00 0.00 83 1012.8
20260509052455 50 29 0.0 0.0 0.00 0.00 0.00 82 1012.7
20260509051953 49 29 0.0 0.0 0.00 0.00 0.00 81 1012.6
20260509051451 49 29 0.0 0.0 0.00 0.00 0.00 84 1012.6
20260509050948 49 29 0.0 0.0 0.00 0.00 0.00 83 1012.7
20260509050444 48 29 0.0 0.0 0.00 0.00 0.00 84 1012.8
20260509045941 49 29 0.0 0.0 0.00 0.00 0.00 84 1012.4
20260509045438 49 29 0.0 0.0 0.00 0.00 0.00 83 1012.5
20260509044935 49 29 0.0 0.0 0.00 0.00 0.00 82 1012.6
20260509044433 49 29 0.0 0.0 0.00 0.00 0.00 83 1012.7
20260509043930 49 29 0.0 0.0 0.00 0.00 0.00 82 1012.9
20260509043426 49 29 0.0 0.0 0.00 0.00 0.00 81 1012.8
20260509042921 48 29 0.0 0.0 0.00 0.00 0.00 80 1013.0
20260509042419 48 41 0.0 0.0 0.00 0.00 0.00 81 1013.0
20260509041915 48 42 0.0 0.0 0.00 0.00 0.00 81 1012.9
20260509041412 48 42 0.0 0.0 0.00 0.00 0.00 83 1012.9
20260509040910 48 42 0.0 0.0 0.00 0.00 0.00 83 1012.8
20260509040408 48 42 0.0 0.0 0.00 0.00 0.00 80 1012.9
20260509035904 49 42 0.0 0.0 0.00 0.00 0.00 80 1012.9
20260509035401 49 42 0.0 0.0 0.00 0.00 0.00 76 1013.0
20260509034857 49 42 0.0 0.0 0.00 0.00 0.00 77 1013.1
20260509034355 50 42 0.0 0.0 0.00 0.00 0.00 79 1013.1
20260509033852 50 42 0.0 0.0 0.00 0.00 0.00 77 1013.0
20260509033349 50 42 0.0 0.0 0.00 0.00 0.00 77 1013.1
20260509032846 50 42 0.0 0.0 0.00 0.00 0.00 78 1012.9
20260509032343 50 42 0.0 0.0 0.00 0.00 0.00 76 1013.0
20260509031841 50 42 0.0 0.0 0.00 0.00 0.00 75 1013.0
20260509031338 50 42 0.0 0.0 0.00 0.00 0.00 75 1012.9
20260509030836 50 42 0.0 0.0 0.00 0.00 0.00 75 1013.1
20260509030334 50 42 0.0 0.0 0.00 0.00 0.00 73 1012.9
20260509025830 51 42 0.0 0.0 0.00 0.00 0.00 72 1013.0
20260509025325 51 42 0.0 0.0 0.00 0.00 0.00 72 1013.2
20260509024821 52 42 0.0 0.0 0.00 0.00 0.00 71 1013.2
20260509024318 52 42 0.0 0.0 0.00 0.00 0.00 71 1013.3
20260509023815 53 42 0.0 0.0 0.00 0.00 0.00 68 1013.2
20260509023312 53 42 0.0 0.0 0.00 0.00 0.00 67 1013.2
20260509022808 53 42 0.0 0.0 0.00 0.00 0.00 65 1013.2
20260509022307 53 42 0.0 0.0 0.00 0.00 0.00 66 1013.5
20260509021802 53 42 0.0 0.0 0.00 0.00 0.00 64 1013.1
20260509021300 53 42 0.0 0.0 0.00 0.00 0.00 66 1013.1
20260509020757 53 42 0.0 0.0 0.00 0.00 0.00 70 1013.3
20260509020255 53 42 0.0 0.0 0.00 0.00 0.00 72 1013.1
20260509015753 53 42 0.0 0.0 0.00 0.00 0.00 71 1013.2
20260509015251 54 42 0.0 0.0 0.00 0.00 0.00 66 1013.0
20260509014746 54 42 0.0 0.0 0.00 0.00 0.00 69 1013.1
20260509014244 54 42 0.0 0.0 0.00 0.00 0.00 66 1013.1
20260509013740 55 42 0.0 0.0 0.00 0.00 0.00 68 1013.3
20260509013236 56 42 0.0 0.0 0.00 0.00 0.00 63 1013.2
20260509012733 56 42 0.0 0.0 0.00 0.00 0.00 62 1013.2
20260509012230 56 42 0.0 0.0 0.00 0.00 0.00 65 1013.1
20260509011727 55 42 0.0 0.0 0.00 0.00 0.00 68 1013.3
20260509011225 57 42 0.0 0.0 0.00 0.00 0.00 71 1013.0
20260509010722 57 42 0.0 0.0 0.00 0.00 0.00 62 1013.0
20260509010218 59 42 0.0 0.0 0.00 0.00 0.00 56 1012.9
20260509005716 59 42 0.0 0.0 0.00 0.00 0.00 54 1012.9
20260509005213 59 42 0.0 0.0 0.00 0.00 0.00 54 1013.1
20260509004708 60 42 0.0 0.0 0.00 0.00 0.00 63 1013.2
20260509004206 61 42 0.0 0.0 0.00 0.00 0.00 50 1012.9
20260509003704 62 42 0.0 0.0 0.00 0.00 0.00 48 1013.0
20260509003201 62 42 0.0 0.0 0.00 0.00 0.00 47 1012.8
20260509002658 62 42 0.0 0.0 0.00 0.00 0.00 47 1012.9
20260509002156 63 42 0.0 0.0 0.00 0.00 0.00 47 1013.0
20260509001653 64 42 0.0 0.0 0.00 0.00 0.00 47 1012.6
20260509001149 64 42 0.0 0.0 0.00 0.00 0.00 45 1012.7
20260509000647 64 42 0.0 0.0 0.00 0.00 0.00 45 1012.7
20260509000144 65 42 0.0 0.0 0.00 0.00 0.00 43 1012.8
20260508235641 65 42 0.0 0.0 0.00 0.00 0.00 44 1012.7
20260508235137 65 42 0.0 0.0 0.00 0.00 0.00 44 1012.6
20260508234635 65 42 0.0 0.0 0.00 0.00 0.00 44 1012.7
20260508234131 66 42 0.0 0.0 0.00 0.00 0.00 41 1012.6
20260508233630 66 42 0.0 0.0 0.00 0.00 0.00 42 1012.6
20260508233127 67 42 0.0 0.0 0.00 0.00 0.00 42 1012.6
20260508232624 67 42 0.0 0.0 0.00 0.00 0.00 45 1012.5
20260508232121 67 42 0.0 0.0 0.00 0.00 0.00 38 1012.4
20260508231619 68 42 0.0 0.0 0.00 0.00 0.00 40 1012.3
20260508231115 68 42 0.0 0.0 0.00 0.00 0.00 37 1012.3
20260508230612 69 42 0.0 0.0 0.00 0.00 0.00 38 1012.5
20260508230109 69 42 0.9 0.9 0.00 0.00 0.00 35 1012.4
20260508225607 69 43 0.0 0.0 0.00 0.00 0.00 43 1012.4
20260508225102 68 43 0.0 0.9 0.00 0.00 0.00 41 1012.4
20260508224601 69 43 0.0 0.0 0.00 0.00 0.00 41 1012.3
20260508224057 68 44 0.0 0.0 0.00 0.00 0.00 38 1012.4
20260508223555 68 44 0.9 1.7 0.00 0.00 0.00 37 1012.3
20260508223052 68 283 0.0 0.0 0.00 0.00 0.00 40 1012.4
20260508222550 68 283 0.0 0.9 0.00 0.00 0.00 39 1012.3
20260508222047 68 283 0.0 1.7 0.00 0.00 0.00 38 1012.2
20260508221543 69 296 0.0 1.7 0.00 0.00 0.00 38 1012.2
20260508221038 71 289 0.9 1.7 0.00 0.00 0.00 32 1012.2
20260508220536 71 296 0.9 2.6 0.00 0.00 0.00 33 1012.2
20260508220032 71 97 0.0 1.7 0.00 0.00 0.00 33 1012.2
20260508215529 71 313 0.9 1.7 0.00 0.00 0.00 34 1012.4
20260508215025 70 290 0.0 3.5 0.00 0.00 0.00 36 1012.4
20260508214523 69 308 0.9 3.5 0.00 0.00 0.00 36 1012.5
20260508214019 69 282 1.7 2.6 0.00 0.00 0.00 34 1012.3
20260508213517 69 271 0.9 3.5 0.00 0.00 0.00 37 1012.6
20260508213012 69 297 0.9 1.7 0.00 0.00 0.00 36 1012.6
20260508212509 69 300 1.7 1.7 0.00 0.00 0.00 33 1012.6
20260508212006 69 330 0.9 2.6 0.00 0.00 0.00 35 1012.5
20260508211501 70 310 1.7 3.5 0.00 0.00 0.00 36 1012.5
20260508210958 71 48 1.7 2.6 0.00 0.00 0.00 33 1012.6
20260508210454 71 331 0.9 6.1 0.00 0.00 0.00 38 1012.5
20260508205950 71 290 4.3 7.0 0.00 0.00 0.00 30 1012.6
20260508205448 70 273 1.7 6.1 0.00 0.00 0.00 34 1012.6
20260508204944 70 304 1.7 1.7 0.00 0.00 0.00 35 1012.9
20260508204442 69 261 0.0 2.6 0.00 0.00 0.00 33 1012.7
20260508203937 69 260 2.6 6.1 0.00 0.00 0.00 32 1012.8
20260508203433 69 261 0.0 1.7 0.00 0.00 0.00 34 1012.7
20260508202929 70 258 1.7 3.5 0.00 0.00 0.00 30 1012.7
20260508202427 71 259 2.6 2.6 0.00 0.00 0.00 31 1012.7